Preview of NWS' New Version of Forecast
This preview is not operational and should not be used for support decisions.
Latest weather observations around

Augusta, Augusta State Airport (KAUG)

Using English Units (Switch to International System of Units)
Date/ Time (EST) Wind (mph) Vis. (mi) Weather Sky Cond. Temp (°F) Rel. Humidity Wind Chill (°F) Heat Index (°F) Pressure Precip. (in)
Air Dwpt 6 hour Altimeter (inHg) Sea level (inHg) 1 hr 3 hr 6 hr
Max Min
Jan 16 16:53 SSW 5 10 Mostly Cloudy BKN050 BKN065 32 21     64% 27   29.81 29.83      
Jan 16 15:53 6 10 Mostly Cloudy BKN075 33 21     61% 28   29.8 29.81      
Jan 16 14:53 SW 9 10 Partly Cloudy SCT039 33 21     61% 25   29.8 29.82      
Jan 16 13:53 7 10 Partly Cloudy SCT040 33 21     61% 27   29.79 29.8      
Jan 16 12:53 WSW 7 10 Clear CLR 33 22     63% 27   29.79 29.8      
Jan 16 11:53 SW 10 10 Cloudy OVC041 31 21     66% 22   29.81 29.83      
Jan 16 10:53 SSW 11 10 Cloudy OVC043 31 21     66% 22   29.84 29.85      
Jan 16 09:53 S 10 10 Cloudy OVC033 29 21     72% 20   29.86 29.87      
Jan 16 08:53 SSW 9 10 Cloudy OVC038 27 20     75% 18   29.9 29.91      
Jan 16 07:53 S 8 10 Mostly Clear FEW035 25 18     74% 16   29.9 29.91      
Jan 16 06:53 S 5 10 Partly Cloudy SCT080 24 19     81% 18   29.92 29.93      
Jan 16 06:11 S 5 10 Cloudy SCT023 OVC031 26 20     77% 20   29.92        
Jan 16 05:53 SSW 5 10 Cloudy OVC023 25 19     78% 19   29.93 29.95      
Jan 16 04:53 SW 3 10 Cloudy OVC025 25 18     74% 21   29.92 29.93      
Jan 16 03:53 Calm 10 Cloudy BKN029 OVC039 24 18     77%     29.95 29.96      
Jan 16 02:53 Calm 10 Cloudy BKN037 OVC065 25 18     74%     29.97 29.98      
Jan 16 01:53 Calm 10 Cloudy FEW046 OVC065 25 18     74%     29.99 30.01      
Jan 16 00:53 SSE 5 10 Cloudy FEW047 OVC060 25 17     71% 19   30 30.01      
Jan 15 23:53 SSE 5 10 Cloudy OVC065 25 17     71% 19   30.02 30.03      
Jan 15 22:53 Calm 10 Cloudy OVC050 25 18     74%     30.04 30.06      
Jan 15 21:53 ESE 6 10 Cloudy OVC050 24 18     77% 17   30.05 30.06      
Jan 15 20:53 N 5 10 Cloudy OVC050 26 17     68% 20   30.05 30.07      
Jan 15 19:53 Calm 10 Cloudy FEW038 OVC050 26 17     68%     30.06 30.08      
Jan 15 18:53 Calm 10 Cloudy OVC039 27 17     66%     30.05 30.07      
Jan 15 17:53 W 3 10 Cloudy OVC042 27 17     66% 23   30.04 30.06      
Jan 15 16:53 Calm 10 Mostly Cloudy BKN040 28 17     63%     30.03 30.04      
Jan 15 15:53 NNW 6 10 Mostly Clear FEW042 28 17     63% 22   30.02 30.04      
Jan 15 14:53 NW 8 10 Mostly Clear FEW033 30 17     58% 22   30.01 30.03      
Jan 15 13:53 NW 5 10 Mostly Cloudy BKN031 31 18     58% 26   30 30.02      
Jan 15 12:53 NW 11 10 Mostly Clear FEW060 30 17     58% 21   29.99 30.01      
Jan 15 11:53 NE 3 10 Clear CLR 28 16     60% 24   30 30.02      
Jan 15 10:53 NNE 7 10 Clear   23 14     68% 15   30.04 30.06      
Jan 15 09:53 NNE 6 10 Cloudy OVC048 21 13     70% 13   30.04 30.06      
Jan 15 08:53 Calm 10 Cloudy OVC050 17 10     73%     30.04 30.06      
Jan 15 07:53 NNW 5 10 Cloudy OVC050 14 7     73% 6   30.02 30.04      
Jan 15 06:53 NW 6 10 Cloudy OVC050 12 5     73% 3   30.02 30.04      
Jan 15 05:53 NNW 7 10 Clear CLR 9 4     80% -2   30.01 30.03      
Jan 15 04:53 N 6 10 Clear CLR 11 4     73% 1   29.99 30.01      
Jan 15 03:53 N 8 10 Clear CLR 9 5     84% -3   29.99 30.01      
Jan 15 02:53 N 6 10 Clear CLR 9 6     88% -1   30 30.02      
Jan 15 01:53 NW 5 10 Clear CLR 11 7     84% 3   30 30.02      
Jan 15 00:53 NNW 6 10 Clear CLR 9 6     88% -1   30.01 30.03      
Jan 14 23:53 N 5 10 Clear CLR 10 6     84% 2   30.02 30.05      
Jan 14 22:53 NNW 5 10 Clear CLR 11 6     80% 3   30.05 30.07      
Jan 14 21:53 NNW 5 10 Clear CLR 11 6     80% 3   30.07 30.09      
Jan 14 20:53 Calm 10 Clear CLR 11 6     80%     30.07 30.1      
Jan 14 19:53 Calm 10 Clear CLR 14 6     70%     30.08 30.11      
Jan 14 18:53 Calm 10 Clear CLR 17 7     64%     30.1 30.12      
Jan 14 17:53 Calm 10 Clear CLR 17 6     61%     30.11 30.14      
Jan 14 16:53 Calm 10 Clear CLR 19 7     59%     30.12 30.14      
Jan 14 15:53 N 3 10 Clear CLR 21 7     54% 16   30.14 30.16      
Jan 14 14:53 Calm 10 Clear CLR 21 7     54%     30.16 30.19      
Jan 14 13:53 Calm 10 Clear CLR 20 7     57%     30.18 30.2      
Jan 14 12:53 Calm 10 Clear CLR 18 6     59%     30.2 30.23      
Jan 14 11:53 Calm 10 Clear CLR 14 6     70%     30.23 30.26      
Jan 14 10:53 NNW 3 10 Clear CLR 12 5     73% 6   30.28 30.3      
Jan 14 09:53 NNW 5 10 Clear CLR 7 1     76% -2   30.31 30.34      
Jan 14 08:53 NNW 6 10 Clear CLR 2 -3     80% -9   30.31 30.34      
Jan 14 07:53 NW 3 10 Clear CLR 0 -4     83% -8   30.31 30.34      
Jan 14 06:53 NNW 5 10 Clear CLR -1 -5     82% -11   30.31 30.34      
Jan 14 05:53 NNW 5 10 Clear CLR -1 -4     86% -11   30.31 30.34      
Jan 14 04:53 NNW 3 10 Clear CLR 1 -2     87% -6   30.32 30.35      
Jan 14 03:53 NNW 6 10 Clear CLR 1 -2     87% -10   30.35 30.37      
Jan 14 02:53 NNW 5 10 Clear CLR 2 0     91% -8   30.37 30.4      
Jan 14 01:53 NNW 6 10 Clear CLR 4 1     88% -7   30.38 30.41      
Jan 14 00:53 N 6 10 Clear CLR 4 1     88% -7   30.36 30.39      
Jan 13 23:53 N 3 10 Clear CLR 6 3     87% -1   30.37 30.4      
Jan 13 22:53 N 6 10 Clear CLR 6 3     87% -4   30.39 30.41      
Jan 13 21:53 N 6 10 Clear CLR 7 4     87% -3   30.4 30.42      
Jan 13 20:53 NW 6 10 Clear CLR 9 5     84% -1   30.4 30.43      
Jan 13 19:53 N 6 10 Clear CLR 11 6     80% 1   30.4 30.43      
Jan 13 18:53 NNW 5 10 Clear CLR 12 7     80% 4   30.4 30.43      
Jan 13 17:53 Calm 10 Clear CLR 16 6     64%     30.4 30.42      
May 15 12:53 NW 14 9 Light Rain FEW029 BKN034 OVC047 60 56     86%     29.77 29.77 0    
May 15 04:53 S 3 0.25 Fog VV001 47 47     100% 46   29.8 29.8      
May 13 19:53 S 7 10 Clear CLR 52 42     69%     30.09 30.09      
May 13 12:53 SSE 5 10 Clear CLR 64 29     27%     30.16 30.16      
May 12 00:53 Calm 10 Clear CLR 43 24     47%     30.16 30.17      
Jun 11 16:53 SW 11 10 Clear CLR 91        %     29.77 29.77      
Jun 11 15:53 SW 15 10 Clear   90 53     29%   88 29.77 29.76      
Jun 11 12:53   10 Clear CLR 87 58     37%   86 29.8 29.79      
Jun 10 13:53 SW 8 10 Clear CLR 77 48     36%   76 29.92 29.92      
Jun 09 00:53 SSE 6 10 Clear CLR 53 42     66%     29.86 29.86      
Jun 08 11:53 5 10 Clear CLR 80        %     29.97 29.97      
Jun 05 22:53 E 9 10 Clear   51 44     77%     29.99 30      
Jun 05 18:53 E 9 10 Cloudy BKN015 OVC040 51 47     86%     29.99 29.99      
Notice The following observation data may not be complete
Jun 05 18:05   10 Cloudy SCT008 OVC015          %